Tracking 31027 objects as of 19-Jul-2025
HD Live streaming from Space Station
objects crossing your sky now

SL-8 R/B

Track SL-8 R/B now!
10-day predictions


NORAD ID: 12088
Int'l Code: 1980-097B
Perigee: 943.7 km
Apogee: 1,017.6 km
Inclination: 82.9 °
Period: 104.6 minutes
Semi major axis: 7351 km
RCS: 4.7296 m2 (large)
Launch date: December 5, 1980
Source: Commonwealth of Independent States (former USSR) (CIS)
Launch site: PLESETSK MISSILE AND SPACE COMPLEX (PKMTR)

Note: This is a ROCKET BODY
Your satellite tracking list
COSMOS 1408 DEB
Track 1 satellite(s)




NASA's NSSDC Master Catalog

Two Line Element Set (TLE):
1 12088U 80097B   25199.72692025  .00000065  00000-0  49183-4 0  9992
2 12088  82.9443 306.7085 0050210  79.4464 281.2344 13.77287854241690
Source of the keplerian elements: AFSPC